GW4439 Weather Reports


Display with metric or nautical units.
time (UTC)temp
F
wind
direction
speed
MPH
gust
MPH
rain 1hr
in
rain 24hr
in
rain mn
in
humidity
%
barometer
mb
20260509002704 62 261 0.0 0.0 0.00 0.00 0.00 81 1014.5
20260509002201 63 261 0.0 0.0 0.00 0.00 0.00 80 1014.4
20260509001658 63 261 0.0 0.0 0.00 0.00 0.00 77 1014.4
20260509001154 63 261 0.0 0.0 0.00 0.00 0.00 76 1014.4
20260509000652 63 262 0.0 0.0 0.00 0.00 0.00 77 1014.2
20260509000149 63 261 0.0 0.0 0.00 0.00 0.00 77 1014.2
20260508235646 64 261 0.0 0.0 0.00 0.00 0.00 75 1014.2
20260508235142 64 262 0.0 0.0 0.00 0.00 0.00 74 1014.2
20260508234641 64 262 0.0 0.0 0.00 0.00 0.00 74 1014.1
20260508234137 64 263 0.0 0.0 0.00 0.00 0.00 74 1014.0
20260508233636 65 262 0.0 0.0 0.00 0.00 0.00 73 1014.1
20260508233133 66 258 0.0 0.0 0.00 0.00 0.00 72 1014.0
20260508232630 68 257 0.0 0.0 0.00 0.00 0.00 68 1014.0
20260508232128 68 253 0.0 0.0 0.00 0.00 0.00 63 1014.0
20260508231625 68 240 1.0 1.0 0.00 0.00 0.00 60 1014.2
20260508231121 69 225 2.0 3.0 0.00 0.00 0.00 59 1014.3
20260508230618 69 212 1.0 2.0 0.00 0.00 0.00 57 1014.1
20260508230114 69 204 2.0 3.0 0.00 0.00 0.00 58 1013.9
20260508225613 69 230 2.0 2.0 0.00 0.00 0.00 57 1014.1
20260508225108 69 232 1.0 1.0 0.00 0.00 0.00 56 1014.1
20260508224607 69 204 2.0 3.0 0.00 0.00 0.00 55 1014.1
20260508224103 69 210 2.0 2.0 0.00 0.00 0.00 56 1014.2
20260508223601 69 227 2.0 2.0 0.00 0.00 0.00 56 1014.1
20260508223058 69 220 2.0 2.0 0.00 0.00 0.00 57 1014.1
20260508222555 70 228 2.0 2.0 0.00 0.00 0.00 54 1014.2
20260508222052 69 235 1.0 1.0 0.00 0.00 0.00 55 1014.1
20260508221549 70 219 2.0 3.0 0.00 0.00 0.00 54 1014.2
20260508221044 69 220 2.0 2.0 0.00 0.00 0.00 54 1014.0
20260508220541 69 188 4.0 4.0 0.00 0.00 0.00 54 1014.1
20260508220038 70 191 2.0 2.0 0.00 0.00 0.00 53 1014.1
20260508215535 70 174 2.0 2.0 0.00 0.00 0.00 53 1014.0
20260508215031 70 170 3.0 3.0 0.00 0.00 0.00 52 1013.8
20260508214529 70 158 2.0 2.0 0.00 0.00 0.00 52 1014.2
20260508214025 70 206 3.0 4.0 0.00 0.00 0.00 52 1014.0
20260508213523 71 228 4.0 4.0 0.00 0.00 0.00 50 1014.2
20260508213018 71 188 3.0 4.0 0.00 0.00 0.00 51 1014.1
20260508212515 71 188 3.0 4.0 0.00 0.00 0.00 51 1014.1
20260508212011 71 239 4.0 4.0 0.00 0.00 0.00 49 1014.3
20260508211507 70 243 3.0 3.0 0.00 0.00 0.00 52 1014.2
20260508211003 71 274 3.0 3.0 0.00 0.00 0.00 49 1014.1
20260508210500 71 266 1.0 1.0 0.00 0.00 0.00 49 1014.2
20260508205956 71 244 4.0 4.0 0.00 0.00 0.00 49 1014.1
20260508205454 71 256 2.0 3.0 0.00 0.00 0.00 49 1014.2
20260508204950 71 255 2.0 3.0 0.00 0.00 0.00 49 1014.3
20260508204448 72 262 3.0 3.0 0.00 0.00 0.00 47 1014.2
20260508203942 71 243 5.0 6.0 0.00 0.00 0.00 47 1014.3
20260508203439 71 221 4.0 4.0 0.00 0.00 0.00 46 1014.4
20260508202935 72 259 3.0 4.0 0.00 0.00 0.00 44 1014.4
20260508202433 72 216 4.0 6.0 0.00 0.00 0.00 44 1014.5
20260508201929 72 247 3.0 4.0 0.00 0.00 0.00 47 1014.4
20260508201426 71 236 3.0 3.0 0.00 0.00 0.00 44 1014.6
20260508200923 71 283 3.0 4.0 0.00 0.00 0.00 45 1014.8
20260508200420 72 262 7.0 8.0 0.00 0.00 0.00 45 1014.7
20260508195916 72 260 4.0 4.0 0.00 0.00 0.00 45 1014.8
20260508195413 72 222 6.0 7.0 0.00 0.00 0.00 44 1014.7
20260508194909 72 168 3.0 6.0 0.00 0.00 0.00 44 1014.8
20260508194406 73 188 4.0 4.0 0.00 0.00 0.00 45 1015.0
20260508193903 73 149 2.0 3.0 0.00 0.00 0.00 45 1014.8
20260508193359 71 285 1.0 2.0 0.00 0.00 0.00 46 1014.9
20260508192855 71 224 3.0 3.0 0.00 0.00 0.00 47 1015.1
20260508192352 71 229 5.0 6.0 0.00 0.00 0.00 49 1015.3
20260508191850 72 237 4.0 4.0 0.00 0.00 0.00 47 1015.3
20260508191347 72 153 4.0 7.0 0.00 0.00 0.00 47 1015.4
20260508190844 73 268 3.0 4.0 0.00 0.00 0.00 48 1015.2
20260508190340 73 256 2.0 3.0 0.00 0.00 0.00 45 1015.3
20260508185837 72 279 3.0 3.0 0.00 0.00 0.00 45 1015.4
20260508185334 72 197 3.0 4.0 0.00 0.00 0.00 45 1015.6
20260508184831 71 237 4.0 4.0 0.00 0.00 0.00 46 1015.7
20260508184329 71 345 1.0 2.0 0.00 0.00 0.00 44 1015.6
20260508183825 72 222 2.0 3.0 0.00 0.00 0.00 43 1016.0
20260508183322 71 179 3.0 3.0 0.00 0.00 0.00 43 1016.1
20260508182817 70 259 1.0 1.0 0.00 0.00 0.00 45 1015.9
20260508182315 72 156 4.0 4.0 0.00 0.00 0.00 44 1016.0
20260508181810 72 184 2.0 3.0 0.00 0.00 0.00 45 1015.9
20260508181308 71 212 1.0 2.0 0.00 0.00 0.00 46 1016.1
20260508180804 71 276 3.0 3.0 0.00 0.00 0.00 47 1016.1
20260508180302 70 226 1.0 1.0 0.00 0.00 0.00 51 1016.3
20260508175758 71 226 5.0 7.0 0.00 0.00 0.00 47 1016.3
20260508175254 71 197 4.0 7.0 0.00 0.00 0.00 45 1016.5
20260508174752 70 76 2.0 2.0 0.00 0.00 0.00 49 1016.5
20260508174250 70 226 3.0 3.0 0.00 0.00 0.00 46 1016.5
20260508173746 69 23 2.0 2.0 0.00 0.00 0.00 47 1016.4
20260508173242 69 98 5.0 6.0 0.00 0.00 0.00 48 1016.7
20260508172738 71 81 4.0 6.0 0.00 0.00 0.00 50 1016.4
20260508172236 70 160 4.0 4.0 0.00 0.00 0.00 47 1016.5
20260508171732 69 324 2.0 3.0 0.00 0.00 0.00 50 1016.7
20260508171228 69 162 2.0 2.0 0.00 0.00 0.00 47 1016.8
20260508170725 70 219 6.0 8.0 0.00 0.00 0.00 47 1016.8
20260508170223 69 257 3.0 4.0 0.00 0.00 0.00 46 1017.2
20260508165720 70 231 1.0 2.0 0.00 0.00 0.00 50 1017.1
20260508165217 69 211 2.0 2.0 0.00 0.00 0.00 48 1017.2
20260508164714 68 80 2.0 2.0 0.00 0.00 0.00 50 1017.4
20260508164210 69 132 3.0 4.0 0.00 0.00 0.00 47 1017.3
20260508163708 69 235 2.0 3.0 0.00 0.00 0.00 49 1017.5
20260508163205 68 256 1.0 2.0 0.00 0.00 0.00 51 1017.7
20260508162700 68 230 7.0 8.0 0.00 0.00 0.00 49 1017.5
20260508162158 68 128 2.0 3.0 0.00 0.00 0.00 49 1017.5
20260508161655 68 75 2.0 4.0 0.00 0.00 0.00 52 1017.7
20260508161152 68 92 6.0 9.0 0.00 0.00 0.00 54 1017.6
20260508160651 67 306 1.0 1.0 0.00 0.00 0.00 56 1017.6
20260508160148 67 233 1.0 2.0 0.00 0.00 0.00 52 1017.7
20260508155645 66 151 5.0 7.0 0.00 0.00 0.00 51 1017.8
20260508155142 67 178 3.0 4.0 0.00 0.00 0.00 51 1018.0
20260508154639 66 75 7.0 8.0 0.00 0.00 0.00 52 1017.9
20260508154135 67 144 4.0 6.0 0.00 0.00 0.00 51 1018.3
20260508153632 67 87 2.0 2.0 0.00 0.00 0.00 52 1018.3
20260508153129 66 106 5.0 6.0 0.00 0.00 0.00 52 1018.3
20260508152626 67 169 3.0 3.0 0.00 0.00 0.00 50 1018.3
20260508152121 67 178 4.0 4.0 0.00 0.00 0.00 50 1018.3
20260508151618 65 77 2.0 3.0 0.00 0.00 0.00 55 1018.3
20260508151115 65 103 9.0 10.0 0.00 0.00 0.00 53 1018.3
20260508150612 66 108 6.0 8.0 0.00 0.00 0.00 53 1018.3
20260508150108 66 143 3.0 4.0 0.00 0.00 0.00 51 1018.2
20260508145605 65 194 3.0 4.0 0.00 0.00 0.00 53 1017.9
20260508145101 64 105 3.0 6.0 0.00 0.00 0.00 60 1017.7
20260508144559 64 90 4.0 4.0 0.00 0.00 0.00 58 1017.8
20260508144056 64 80 3.0 6.0 0.00 0.00 0.00 60 1017.8
20260508143553 64 87 3.0 3.0 0.00 0.00 0.00 58 1018.0
20260508143050 64 179 2.0 3.0 0.00 0.00 0.00 62 1018.0
20260508142547 64 87 6.0 8.0 0.00 0.00 0.00 64 1018.3
20260508142044 64 149 2.0 4.0 0.00 0.00 0.00 63 1018.3
20260508141540 63 78 7.0 8.0 0.00 0.00 0.00 72 1018.3
20260508141038 63 75 3.0 3.0 0.00 0.00 0.00 70 1018.2
20260508140535 64 89 3.0 4.0 0.00 0.00 0.00 74 1018.3
20260508140031 63 182 0.0 1.0 0.00 0.00 0.00 73 1018.4
20260508135527 62 36 2.0 2.0 0.00 0.00 0.00 74 1018.2
20260508135024 62 66 3.0 3.0 0.00 0.00 0.00 74 1018.4
20260508134520 61 121 4.0 4.0 0.00 0.00 0.00 76 1018.4
20260508134017 61 233 1.0 1.0 0.00 0.00 0.00 80 1018.3
20260508133514 60 100 2.0 3.0 0.00 0.00 0.00 82 1018.3
20260508133011 60 81 4.0 4.0 0.00 0.00 0.00 83 1018.5
20260508132510 61 51 1.0 2.0 0.00 0.00 0.00 82 1018.0
20260508132006 60 63 2.0 2.0 0.00 0.00 0.00 81 1017.9
20260508131500 59 273 1.0 1.0 0.00 0.00 0.00 80 1018.2
20260508130958 59 248 0.0 0.0 0.00 0.00 0.00 83 1017.9
20260508130455 58 26 2.0 2.0 0.00 0.00 0.00 81 1018.0
20260508125950 58 54 3.0 3.0 0.00 0.00 0.00 82 1017.8
20260508125447 57 66 4.0 4.0 0.00 0.00 0.00 83 1017.7
20260508124945 57 258 0.0 0.0 0.00 0.00 0.00 87 1017.7
20260508124442 56 259 0.0 0.0 0.00 0.00 0.00 90 1017.7
20260508123940 55 293 2.0 2.0 0.00 0.00 0.00 93 1017.5
20260508123438 55 271 0.0 0.0 0.00 0.00 0.00 95 1017.4
20260508122934 55 263 0.0 0.0 0.00 0.00 0.00 96 1017.5
20260508122431 54 280 0.0 0.0 0.00 0.00 0.00 97 1017.6
20260508121928 53 259 0.0 0.0 0.00 0.00 0.00 97 1017.3
20260508121427 53 267 0.0 0.0 0.00 0.00 0.00 98 1017.3
20260508120924 52 275 0.0 0.0 0.00 0.00 0.00 98 1017.3
20260508120421 52 269 0.0 0.0 0.00 0.00 0.00 98 1017.1
20260508115919 52 264 0.0 0.0 0.00 0.00 0.00 98 1017.2
20260508115418 51 263 0.0 0.0 0.00 0.00 0.00 98 1017.3
20260508114913 51 271 0.0 0.0 0.00 0.00 0.00 98 1016.9
20260508114410 51 257 0.0 0.0 0.00 0.00 0.00 98 1017.0
20260508113906 50 263 0.0 0.0 0.00 0.00 0.00 98 1017.1
20260508113404 50 263 0.0 0.0 0.00 0.00 0.00 98 1016.9
20260508112901 50 262 0.0 0.0 0.00 0.00 0.00 98 1016.7
20260508112358 50 262 0.0 0.0 0.00 0.00 0.00 99 1016.6
20260508111855 49 262 0.0 0.0 0.00 0.00 0.00 98 1016.3
20260508111352 49 262 0.0 0.0 0.00 0.00 0.00 98 1016.2
20260508110849 49 271 0.0 0.0 0.00 0.00 0.00 99 1016.1
20260508110347 49 271 0.0 0.0 0.00 0.00 0.00 98 1016.0
20260508105846 48 271 0.0 0.0 0.00 0.00 0.00 98 1016.1
20260508105343 48 272 0.0 0.0 0.00 0.00 0.00 98 1015.9
20260508104840 48 273 0.0 0.0 0.00 0.00 0.00 98 1016.0
20260508104337 49 268 0.0 0.0 0.00 0.00 0.00 98 1015.9
20260508103835 48 266 0.0 0.0 0.00 0.00 0.00 98 1015.9
20260508103331 48 266 0.0 0.0 0.00 0.00 0.00 98 1015.8
20260508102829 48 265 0.0 0.0 0.00 0.00 0.00 98 1015.7
20260508102327 48 265 0.0 0.0 0.00 0.00 0.00 98 1015.4
20260508101824 48 265 0.0 0.0 0.00 0.00 0.00 98 1015.6
20260508101321 49 265 0.0 0.0 0.00 0.00 0.00 98 1015.7
20260508100818 49 270 0.0 0.0 0.00 0.00 0.00 98 1015.3
20260508100317 49 266 0.0 0.0 0.00 0.00 0.00 98 1015.1
20260508095812 49 266 0.0 0.0 0.00 0.00 0.00 98 1015.1
20260508095310 49 266 0.0 0.0 0.00 0.00 0.00 98 1015.0
20260508094807 49 266 0.0 0.0 0.00 0.00 0.00 98 1015.1
20260508094304 49 268 0.0 0.0 0.00 0.00 0.00 98 1015.0
20260508093801 49 266 0.0 0.0 0.00 0.00 0.00 98 1015.1
20260508093258 49 265 0.0 0.0 0.00 0.00 0.00 98 1015.0
20260508092755 49 266 0.0 0.0 0.00 0.00 0.00 98 1015.2
20260508092253 50 265 0.0 0.0 0.00 0.00 0.00 98 1015.0
20260508091751 49 265 0.0 0.0 0.00 0.00 0.00 97 1014.9
20260508091247 49 265 0.0 0.0 0.00 0.00 0.00 97 1015.0
20260508090745 49 265 0.0 0.0 0.00 0.00 0.00 97 1014.7
20260508090243 49 273 0.0 0.0 0.00 0.00 0.00 97 1014.9
20260508085738 49 273 0.0 0.0 0.00 0.00 0.00 97 1014.8
20260508085236 49 274 0.0 0.0 0.00 0.00 0.00 97 1014.5
20260508084732 50 275 0.0 0.0 0.00 0.00 0.00 97 1014.5
20260508084230 50 274 0.0 0.0 0.00 0.00 0.00 97 1014.7
20260508083727 50 274 0.0 0.0 0.00 0.00 0.00 97 1014.6
20260508083225 50 274 0.0 0.0 0.00 0.00 0.00 97 1014.9
20260508082719 50 275 0.0 0.0 0.00 0.00 0.00 97 1014.7
20260508082217 50 275 0.0 0.0 0.00 0.00 0.00 97 1014.9
20260508081714 50 269 0.0 0.0 0.00 0.00 0.00 96 1014.6
20260508081210 50 269 0.0 0.0 0.00 0.00 0.00 96 1014.5
20260508080708 50 271 0.0 0.0 0.00 0.00 0.00 96 1014.5
20260508080206 50 271 0.0 0.0 0.00 0.00 0.00 96 1014.7
20260508075702 51 271 0.0 0.0 0.00 0.00 0.00 96 1014.6
20260508075159 51 271 0.0 0.0 0.00 0.00 0.00 95 1014.4
20260508074657 51 271 0.0 0.0 0.00 0.00 0.00 95 1014.6
20260508074154 51 271 0.0 0.0 0.00 0.00 0.00 95 1014.6
20260508073651 51 271 0.0 0.0 0.00 0.00 0.00 95 1014.6
20260508073149 51 272 0.0 0.0 0.00 0.00 0.00 95 1014.5
20260508072644 51 271 0.0 0.0 0.00 0.00 0.00 94 1014.5
20260508072141 51 272 0.0 0.0 0.00 0.00 0.00 94 1014.6
20260508071639 52 273 0.0 0.0 0.00 0.00 0.00 93 1014.7
20260508071137 52 265 0.0 0.0 0.00 0.00 0.00 93 1014.6
20260508070634 52 265 0.0 0.0 0.00 0.00 0.00 93 1014.3
20260508070133 52 265 0.0 0.0 0.00 0.00 0.00 92 1014.4
20260508065630 52 265 0.0 0.0 0.00 0.00 0.00 92 1014.3
20260508065127 53 265 0.0 0.0 0.00 0.00 0.00 92 1014.5
20260508064625 53 265 0.0 0.0 0.00 0.00 0.00 91 1014.4
20260508064123 53 272 0.0 0.0 0.00 0.00 0.00 90 1014.4
20260508063620 54 265 0.0 0.0 0.00 0.00 0.00 88 1014.2
20260508063119 54 274 0.0 0.0 0.00 0.00 0.00 88 1014.2
20260508062616 54 275 0.0 0.0 0.00 0.00 0.00 88 1014.0
20260508062112 54 275 0.0 0.0 0.00 0.00 0.00 89 1014.1
20260508061609 54 264 0.0 0.0 0.00 0.00 0.00 89 1014.2
20260508061107 54 264 0.0 0.0 0.00 0.00 0.00 89 1014.2
20260508060603 54 264 0.0 0.0 0.00 0.00 0.00 89 1014.2
20260508060100 55 265 0.0 0.0 0.00 0.00 0.00 89 1014.2
20260508055556 55 263 0.0 0.0 0.00 0.00 0.00 88 1014.3
20260508055053 55 263 0.0 0.0 0.00 0.00 0.00 87 1014.4
20260508054549 56 263 0.0 0.0 0.00 0.00 0.00 87 1014.5
20260508054047 55 263 0.0 0.0 0.00 0.00 0.00 87 1014.4
20260508053543 56 276 0.0 0.0 0.00 0.00 0.00 87 1014.4
20260508053042 56 279 0.0 0.0 0.00 0.00 0.00 87 1014.5
20260508052539 57 276 0.0 0.0 0.00 0.00 0.00 84 1014.4
20260508052035 57 253 0.0 0.0 0.00 0.00 0.00 80 1014.5
20260508051532 57 274 0.0 0.0 0.00 0.00 0.00 82 1014.5
20260508051027 57 264 0.0 0.0 0.00 0.00 0.00 81 1014.5
20260508050524 57 267 0.0 0.0 0.00 0.00 0.00 81 1014.4
20260508050021 57 265 0.0 0.0 0.00 0.00 0.00 81 1014.4
20260508045517 57 264 0.0 0.0 0.00 0.00 0.00 81 1014.2
20260508045015 57 264 0.0 0.0 0.00 0.00 0.00 81 1014.2
20260508044512 57 264 0.0 0.0 0.00 0.00 0.00 81 1014.1
20260508044008 58 264 0.0 0.0 0.00 0.00 0.00 79 1014.2
20260508043505 58 264 0.0 0.0 0.00 0.00 0.00 77 1014.1
20260508043001 58 274 0.0 0.0 0.00 0.00 0.00 76 1014.1
20260508042459 58 286 0.0 0.0 0.00 0.00 0.00 80 1014.0
20260508041956 58 263 0.0 1.0 0.00 0.00 0.00 79 1014.2
20260508041452 59 263 0.0 0.0 0.00 0.00 0.00 75 1014.0
20260508040949 59 263 0.0 0.0 0.00 0.00 0.00 74 1014.0
20260508040446 60 261 1.0 1.0 0.00 0.00 0.00 72 1013.8
20260508035944 60 315 1.0 1.0 0.00 1.17 1.17 73 1013.8
20260508035440 60 268 0.0 0.0 0.00 1.17 1.17 73 1014.1
20260508034937 60 254 0.0 0.0 0.00 1.17 1.17 73 1013.8
20260508034435 60 283 1.0 1.0 0.00 1.17 1.17 72 1013.9
20260508033931 60 272 0.0 0.0 0.00 1.17 1.17 72 1013.9
20260508033430 61 267 0.0 0.0 0.00 1.17 1.17 72 1013.9
20260508032926 61 299 1.0 1.0 0.00 1.17 1.17 72 1013.8
20260508032424 61 288 1.0 1.0 0.00 1.17 1.17 72 1014.0
20260508031920 61 264 0.0 0.0 0.00 1.17 1.17 72 1013.8
20260508031418 62 326 2.0 2.0 0.00 1.17 1.17 71 1013.8
20260508030913 62 277 0.0 0.0 0.00 1.17 1.17 71 1013.7
20260508030411 62 26 1.0 2.0 0.00 1.17 1.17 71 1013.7
20260508025908 62 309 0.0 0.0 0.00 1.17 1.17 71 1013.7
20260508025404 63 266 1.0 1.0 0.00 1.17 1.17 70 1013.7
20260508024901 63 277 2.0 2.0 0.00 1.17 1.17 71 1013.5
20260508024358 63 268 0.0 0.0 0.00 1.17 1.17 70 1013.6
20260508023855 64 267 1.0 1.0 0.00 1.17 1.17 69 1013.4
20260508023352 64 288 1.0 1.0 0.00 1.17 1.17 69 1013.2
20260508022848 64 44 1.0 1.0 0.00 1.17 1.17 68 1013.4
20260508022344 64 273 2.0 2.0 0.00 1.17 1.17 69 1013.1
20260508021841 65 264 1.0 1.0 0.00 1.17 1.17 68 1013.2
20260508021337 65 61 2.0 2.0 0.00 1.17 1.17 69 1012.9
20260508020833 66 25 2.0 4.0 0.00 1.17 1.17 71 1012.9
20260508020331 66 73 3.0 4.0 0.00 1.17 1.17 72 1013.1
20260508015828 67 16 3.0 6.0 0.00 1.17 1.17 71 1012.7
20260508015326 67 274 1.0 1.0 0.00 1.17 1.17 71 1012.6
20260508014822 67 312 4.0 4.0 0.00 1.17 1.17 74 1012.4
20260508014319 67 258 0.0 1.0 0.00 1.17 1.17 76 1012.2
20260508013814 67 298 0.0 0.0 0.00 1.17 1.17 78 1012.0
20260508013311 68 257 0.0 0.0 0.00 1.17 1.17 77 1011.8
20260508012809 68 309 2.0 3.0 0.00 1.17 1.17 76 1011.7
20260508012307 68 271 2.0 2.0 0.00 1.17 1.17 75 1011.6
20260508011804 68 298 1.0 2.0 0.00 1.17 1.17 76 1011.4
20260508011301 69 332 1.0 2.0 0.00 1.17 1.17 77 1011.4
20260508010758 69 289 2.0 3.0 0.00 1.17 1.17 77 1011.2
20260508010256 69 290 2.0 3.0 0.00 1.17 1.17 78 1011.2
20260508005752 69 250 1.0 1.0 0.00 1.17 1.17 78 1011.2
20260508005249 69 249 2.0 2.0 0.00 1.17 1.17 77 1010.8
20260508004744 69 263 1.0 1.0 0.00 1.17 1.17 77 1010.8
20260508004241 70 259 1.0 1.0 0.00 1.17 1.17 76 1010.8
20260508003738 70 269 3.0 4.0 0.00 1.17 1.17 75 1010.5
20260508003235 71 251 2.0 3.0 0.00 1.17 1.17 74 1010.2
20260508002732 71 260 0.0 1.0 0.00 1.17 1.17 73 1010.2